Location: *
(28.3744°N, 81.5492°W)
Time: 13:41:18
(UTC+00:00)

CZ-2C R/B - Pass Details

Date: 15 June 2025
Orbit: 413 x 447 km, 97.8° (Epoch: 15 July)

Event Time Altitude Azimuth Distance (km) Brightness Sun altitude
Exits shadow 00:54:39 - 153° (SSE) 2,014 5.2 -6.6°
Reaches altitude 10° 00:55:43 10° 149° (SSE) 1,578 4.6 -6.8°
Maximum altitude 00:58:57 44° 76° (ENE) 632 2.8 -7.4°
Drops below altitude 10° 01:02:12 10° 3° (N) 1,586 5.6 -8.0°
Sets 01:04:17 0° 357° (N) 2,459 6.7 -8.4°
